Cosmos 1315 Rocket - Orbit

View from above orbital plane
View from above orbital plane
View from above satellite
View from above satellite

Ground track
Ground track

The orbit data is extracted from the following two-line orbital elements,

1 12904U 81103B   13138.53316890  .00001725  00000-0  13259-3 0  2328
2 12904 081.1778 173.4792 0029379 278.0968 081.6920 15.00928631268820
Epoch (UTC): 18 May 2013 12:47:45
Eccentricity: 0.0029379
inclination: 81.1778°
perigee height: 543 km
apogee height: 584 km
right ascension of ascending node: 173.4792°
argument of perigee: 278.0968°
revolutions per day: 15.00928631
mean anomaly at epoch: 81.6920°
orbit number at epoch: 26882

The dashed part of the orbit path shows where the satellite is in the earth's shadow,  

Developed and maintained by Chris Peat, Heavens-Above GmbH. Please read the updated FAQ before sending e-mail. Imprint. DLR